Location: PSU-Greenbush Astrophysical Observatory
(37.5140°N, 94.9880°W)
Time: 23:25:23
(UTC-05:00)

CUTE 1.7 + AOD 2 - Pass Details

Date: 21 February 2020
Orbit: 593 x 612 km, 97.6° (Epoch: 04 April)

Event Time Altitude Azimuth Distance (km) Brightness Sun altitude
Rises 04:46:44 0° 27° (NNE) 2,843 ? -27.6°
Reaches altitude 10° 04:49:18 10° 42° (NE) 1,934 ? -27.1°
Maximum altitude 04:52:37 23° 95° (E) 1,294 ? -26.4°
Drops below altitude 10° 04:55:54 10° 147° (SSE) 1,919 ? -25.8°
Sets 04:58:26 0° 163° (SSE) 2,814 ? -25.3°
